Regional Weather Roundup
Issued by NWS

Home | Current Version | Previous Version | Text Only | Print | Product List | Glossary Off
Versions: 1 2 3 4 5 6 7 8 9 10 11 12 13 14 15 16 17 18 19 20 21 22 23 24 25 26 27 28 29 30 31 32 33 34 35 36 37 38 39 40 41 42 43 44 45 46 47 48 49 50

000
ASUS44 KMEG 270510
RWRTN
TENNESSEE HOURLY STATE WEATHER ROUNDUP
NATIONAL WEATHER SERVICE MEMPHIS TN
1200 AM CDT WED JUL 27 2016

TNZ002-004-019-021-049-052-054-088>092-270600-
WEST TENNESSEE

CITY           SKY/WX    TMP DP  RH WIND       PRES   REMARKS
MEMPHIS INTL   PTCLDY    85  72  65 CALM      29.95S HX  91
NWS MEMPHIS      N/A     80 N/A N/A MISG        N/A
JACKSON        CLOUDY    75  74  96 S3        29.97F
DYERSBURG      CLEAR     75  72  88 MISG      29.97S
UNION CITY     CLEAR     75  73  94 SE6       29.97S
PARIS          PTCLDY    73  72  94 CALM      29.99F
LEXINGTON      CLEAR     73  72  94 CALM      29.98R
$$

TNZ008-025-027-028-033-062-065-066-270600-
NORTH MIDDLE TENNESSEE

CITY           SKY/WX    TMP DP  RH WIND       PRES   REMARKS
NASHVILLE      CLOUDY    76  73  91 S3        30.00S
CLARKSVILLE    CLOUDY    77  74  90 SW5       29.99S
SMYRNA         MOCLDY    79  73  81 CALM      30.00F
COOKEVILLE     CLEAR     79  75  89 SW3       30.02S
CROSSVILLE     CLOUDY    76  70  82 CALM      30.08F
$$

TNZ061-075-076-078-094-096-097-270600-
SOUTH MIDDLE TENNESSEE

CITY           SKY/WX    TMP DP  RH WIND       PRES   REMARKS
FAYETTEVILLE   CLEAR     77  72  83 S5        30.03R
TULLAHOMA      CLEAR     75  72  88 E3        30.04S
WINCHESTER     CLEAR     75  73  94 CALM      30.03F
MCMINNVILLE    MOCLDY    75  75 100 CALM      30.04S
COLUMBIA       CLEAR    N/A N/A N/A CALM      29.99S
SHELBYVILLE    CLEAR     75  75 100 CALM      30.02S
$$

TNZ017-018-042-046-047-270600-
NORTHEAST TENNESSEE

CITY           SKY/WX    TMP DP  RH WIND       PRES   REMARKS
TRI CITIES     PTCLDY    73  69  87 NE3       30.07S
ELIZABETHTON   PTCLDY    73  72  94 CALM      30.08S
$$

TNZ012-013-036-069-073-074-270600-
CENTRAL EAST TENNESSEE

CITY           SKY/WX    TMP DP  RH WIND       PRES   REMARKS
KNOXVILLE      CLOUDY    79  73  82 SW8       30.03F
OAK RIDGE      MOCLDY    82  71  69 CALM      30.04F
GATLINBURG     PTCLDY    77  70  78 CALM      30.04F
MORRISTOWN     CLOUDY    81  73  78 W5        30.05S
$$

TNZ083-085-099-270600-
SOUTHEAST TENNESSEE

CITY           SKY/WX    TMP DP  RH WIND       PRES   REMARKS
CHATTANOOGA    CLEAR     81  72  74 CALM      30.02F
$$

SKY/WX REPORTED AS FAIR MEANS FEW OR NO CLOUDS BELOW
12 THOUSAND FEET.




USA.gov is the U.S. government's official web portal to all federal, state and local government web resources and services.